Погода в Ковеле

Украина / Волынская область     51°12′48″N   24°42′36″E
темп.,
°C
ветер,
м/с
пор.,
м/с
влажн.,
%
обл.,
%
осадки,
мм/ч
давл.,
гПа
погр.,
м
16 мая, вс
вс1600:00+10ююв22865 0.0 101015
03:00+9ююв3390100 0.0 101139
06:00+9юв3591100 0.0 101090
09:00+14юв5978100 0.0 1010453
12:00+18ююв686438 0.0 10091332
15:00+20ююв5758100 0.8 10071567
18:00+19ююв4772100 2.3 10061046
21:00+14ююз3390100 4.7 100650
17 мая, пн
пн1700:00+13юз2393100 1.8 100764
03:00+12юз3796100 2.2 1007249
06:00+10зюз249599 0.0 1008101
09:00+14з23810 0.0 1008445
12:00+18зюз11600 0.0 10071084
15:00+20ююз115125 0.0 10061740
18:00+20ю11485 0.0 10041740
21:00+16всв3567100 0.0 100493
18 мая, вт
вт1800:00+13юв228050 0.0 100322
03:00+12зсз3691100 0.1 1002213
06:00+11з3797100 0.6 1001356
09:00+10зсз71195100 3.9 1002644
12:00+11з5993100 5.1 1004632
15:00+10з81393100 5.8 1004782
18:00+10з71390100 0.1 1005764
21:00+10з71489100 0.3 1005738
19 мая, ср
ср1900:00+10з71590100 0.0 1005831
03:00+9з81590100 0.0 1006962
06:00+9з91593100 0.1 1006892
09:00+10зсз91480100 0.2 10081004
12:00+12зсз91277100 0.1 10101122
15:00+11зсз7117699 0.2 10111248
18:00+14зсз7106899 0.3 10121432
21:00+10зсз49795 0.3 1014243
20 мая, чт
чт2000:00+7з489191 0.0 1015145
03:00+6з399416 0.0 1016155
06:00+6зюз379575 0.0 1017129
09:00+12з587214 0.0 1017578
12:00+15зюз575821 0.1 10171653
15:00+15з685975 0.9 10171582
18:00+15з67637 0.7 10171289
21:00+10зюз33845 0.9 101727